Flag for Canada Weather past 2 weeks in Inuvik, Northwest Territories, Canada

Now
-11 °F

Snow flurries. Clear.


Feels Like: -11 °F
Forecast: 1 / 7 °F
Wind: No wind

Location: Inuvik

Current Time: Dec 26, 2014 at 6:39:29 AM

Latest Report: Dec 26, 2014 at 6:00 AM


Visibility: 15 mi

Pressure: 29.81 "Hg

Humidity: 76%

Dew point: -17 °F

Location of InuvikLocation

Historic Weather in Inuvik — Graph

°F

Inuvik temperature yesterday

Maximum temperature yesterday: 0 °F (at 4:00 PM)
Minimum temperature yesterday: -8 °F (at 12:00 AM)
Average temperature yesterday: -5 °F

Past Weeks' High & Low Weather Summary

 TemperatureHumidityPressure
High7 °F (Dec 20, 1:00 AM)92% (Dec 17, 4:00 AM)30.13 "Hg (Dec 17, 4:00 AM)
Low-22 °F (Dec 11, 7:00 PM)69% (Dec 12, 12:00 AM)29.62 "Hg (Dec 15, 6:00 AM)
Average-2 °F81%29.85 "Hg
* Reported Dec 11 5:00 AM — Dec 26 5:00 AM, Inuvik, Weather by CustomWeather, © 2014

Note: Actual official high and low records may vary slightly from our data, if they occured in-between our weather recording intervals... More about our weather records

Advertising

Inuvik weather history for previous 24 hours

 ConditionsComfort  
Time TempWeatherWind HumidityBarometerVisibility
5:00 AM
Dec 26
-9 °FClear.2 mph77%29.81 "Hg15 mi
4:00 AM-11 °FClear.No wind76%29.81 "Hg15 mi
3:00 AM-11 °FClear.No wind76%29.80 "Hg15 mi
2:00 AM-11 °FSunny.2 mph76%29.80 "Hg15 mi
1:00 AM-8 °FClear.2 mph77%29.78 "Hg15 mi
12:00 AM-6 °FClear.3 mph84%29.77 "Hg15 mi
11:00 PM
Dec 25
-4 °FClear.7 mph77%29.77 "Hg15 mi
10:00 PM-6 °FClear.6 mph84%29.76 "Hg15 mi
9:00 PM-2 °FClear.No wind84%29.77 "Hg15 mi
8:00 PM-2 °FSnow flurries. Sunny.6 mph77%29.77 "Hg15 mi
7:00 PM-2 °FSnow flurries. Scattered clouds.8 mph77%29.77 "Hg10 mi
6:00 PM0 °FSnow flurries. Scattered clouds.6 mph78%29.79 "Hg10 mi
5:00 PM0 °FSnow flurries. Partly sunny.7 mph78%29.78 "Hg3 mi
4:00 PM0 °FIce fog.7 mph78%29.80 "Hg2 mi
3:00 PM-2 °FOvercast.7 mph77%29.79 "Hg15 mi
2:00 PM-4 °FPartly sunny.9 mph77%29.79 "Hg15 mi
1:00 PM-6 °FPartly sunny.No wind77%29.80 "Hg15 mi
12:00 PM-8 °FPartly sunny.2 mph77%29.79 "Hg15 mi
11:00 AM-8 °FScattered clouds.3 mph77%29.80 "Hg15 mi
10:00 AM-8 °FSunny.6 mph70%29.80 "Hg15 mi
9:00 AM-8 °FSunny.6 mph77%29.80 "Hg15 mi
8:00 AM-8 °FSunny.7 mph70%29.81 "Hg15 mi
7:00 AM-8 °FClear.6 mph77%29.82 "Hg15 mi
6:00 AM-8 °FClear.10 mph77%29.82 "Hg15 mi
Weather by CustomWeather, © 2014

See weather overviewHow to use our weather pages